Weather History for Poteau, OK

Change the Weather History Date:

Monday, February 24, 2014

  Actual Average (KFSM) Record (KFSM)
Temperature  
Mean Temperature 42 °F 47 °F  
Max Temperature 51 °F 58 °F 84 °F (1918)
Min Temperature 33 °F 36 °F 18 °F (1965)
Degree Days  
Heating Degree Days 23 18  
Month to date heating degree days 513  
Since 1 July heating degree days 2604  
Moisture  
Dew Point 30 °F    
Average Humidity 60    
Maximum Humidity 93    
Minimum Humidity 38    
Precipitation  
Precipitation 0.00 in 0.10 in 1.86 in (1979)
Month to date precipitation 2.34  
Year to date precipitation 5.15  
Sea Level Pressure  
Sea Level Pressure 30.18 in    
Wind  
Wind Speed 2 mph (NE)    
Max Wind Speed 8 mph    
Max Gust Speed -    
Visibility 10 miles    
Events Rain    
T = Trace of Precipitation, MM = Missing Value Source: NWS Daily Summary

Daily Weather History Graph

Daily Weather History Graph

Search for Another Location

Airport:

Trip Planner

Search our weather history database for the weather conditions in past years. The results will help you decide how hot, cold, wet, or windy it might be!

Date:

Astronomy

Feb. 24, 2014 Rise Set
Actual Time 6:54 AM CST 6:09 PM CST
Civil Twilight 6:28 AM CST 6:35 PM CST
Nautical Twilight 5:59 AM CST 7:04 PM CST
Astronomical Twilight 5:29 AM CST 7:34 PM CST
Moon 2:46 AM CST (2/24) 1:18 PM CST (2/24)
Length of Visible Light 12h 06m
Length of Day
11h 15m
Waning Crescent, 28% of the Moon is Illuminated
Feb 24
Waning Crescent
Mar 1
New
Mar 8
First Quarter
Mar 16
Full
Mar 23
Last Quarter

Hourly Weather History & Observations

Time (CST) Temp. Windchill Dew Point Humidity Pressure Visibility Wind Dir Wind Speed Gust Speed Precip Events Conditions
12:15 AM 37.4 °F - 35.6 °F 93% 30.20 in 10.0 mi Calm Calm - N/A   Unknown
12:35 AM 37.4 °F - 35.6 °F 93% 30.20 in 10.0 mi Calm Calm - N/A   Unknown
12:55 AM 37.4 °F 33.8 °F 35.6 °F 93% 30.20 in 10.0 mi NNE 4.6 mph - N/A   Unknown
1:15 AM 41.0 °F - 35.6 °F 81% 30.20 in 10.0 mi Calm Calm - N/A   Unknown
1:35 AM 37.4 °F - 33.8 °F 87% 30.21 in 10.0 mi Calm Calm - N/A   Unknown
1:55 AM 37.4 °F - 35.6 °F 93% 30.21 in 10.0 mi Calm Calm - N/A   Unknown
2:15 AM 37.4 °F - 35.6 °F 93% 30.21 in 10.0 mi Calm Calm - N/A   Unknown
2:35 AM 35.6 °F 32.8 °F 33.8 °F 93% 30.21 in 10.0 mi North 3.5 mph - N/A   Unknown
2:55 AM 35.6 °F - 33.8 °F 93% 30.20 in 10.0 mi Calm Calm - N/A   Unknown
3:15 AM 37.4 °F - 32.0 °F 81% 30.20 in 10.0 mi Calm Calm - N/A   Unknown
3:35 AM 37.4 °F - 32.0 °F 81% 30.20 in 10.0 mi Calm Calm - N/A   Unknown
3:55 AM 37.4 °F - 32.0 °F 81% 30.20 in 10.0 mi Calm Calm - N/A   Unknown
4:15 AM 35.6 °F - 32.0 °F 87% 30.20 in 10.0 mi Calm Calm - N/A   Unknown
4:35 AM 37.4 °F - 32.0 °F 81% 30.20 in 10.0 mi Calm Calm - N/A   Unknown
4:55 AM 35.6 °F - 32.0 °F 87% 30.21 in 10.0 mi Calm Calm - N/A   Unknown
5:15 AM 35.6 °F - 32.0 °F 87% 30.21 in 10.0 mi Calm Calm - N/A   Unknown
5:35 AM 35.6 °F - 32.0 °F 87% 30.21 in 10.0 mi Calm Calm - N/A   Unknown
5:55 AM 35.6 °F 32.8 °F 30.2 °F 81% 30.21 in 10.0 mi East 3.5 mph - N/A   Unknown
6:15 AM 33.8 °F - 30.2 °F 87% 30.21 in 10.0 mi Calm Calm - N/A   Unknown
6:40 AM 35.6 °F - 30.2 °F 81% 30.21 in 10.0 mi Calm Calm - N/A   Unknown
6:55 AM 33.8 °F - 30.2 °F 87% 30.22 in 10.0 mi Calm Calm - N/A   Unknown
7:15 AM 35.6 °F - 32.0 °F 87% 30.23 in 10.0 mi Calm Calm - N/A   Unknown
7:35 AM 35.6 °F 32.8 °F 30.2 °F 81% 30.24 in 10.0 mi North 3.5 mph - N/A   Unknown
7:55 AM 35.6 °F 32.8 °F 30.2 °F 81% 30.24 in 10.0 mi NNE 3.5 mph - N/A   Unknown
8:15 AM 37.4 °F 34.9 °F 30.2 °F 75% 30.26 in 10.0 mi North 3.5 mph - N/A   Unknown
8:35 AM 37.4 °F - 30.2 °F 75% 30.27 in 10.0 mi Calm Calm - N/A   Unknown
8:55 AM 41.0 °F 38.0 °F 23.0 °F 49% 30.28 in 10.0 mi East 4.6 mph - N/A   Unknown
9:15 AM 41.0 °F 35.8 °F 21.2 °F 45% 30.28 in 10.0 mi East 8.1 mph - N/A   Unknown
9:35 AM 41.0 °F 38.0 °F 21.2 °F 45% 30.29 in 10.0 mi ENE 4.6 mph - N/A   Unknown
9:55 AM 42.8 °F 38.0 °F 21.2 °F 42% 30.28 in 10.0 mi ENE 8.1 mph - N/A   Unknown
10:15 AM 42.8 °F 40.1 °F 23.0 °F 46% 30.28 in 10.0 mi ENE 4.6 mph - N/A   Unknown
10:35 AM 44.6 °F 40.7 °F 23.0 °F 43% 30.28 in 10.0 mi NNE 6.9 mph - N/A   Unknown
10:55 AM 44.6 °F 41.4 °F 23.0 °F 43% 30.27 in 10.0 mi NE 5.8 mph - N/A   Unknown
11:15 AM 46.4 °F 42.9 °F 23.0 °F 40% 30.26 in 10.0 mi NE 6.9 mph - N/A   Unknown
11:35 AM 48.2 °F - 24.8 °F 40% 30.25 in 10.0 mi NE 8.1 mph - N/A   Unknown
11:55 AM 48.2 °F - 24.8 °F 40% 30.23 in 10.0 mi ENE 4.6 mph - N/A   Unknown
12:15 PM 51.8 °F - 26.6 °F 38% 30.23 in 10.0 mi ENE 4.6 mph - N/A   Unknown
12:35 PM 51.8 °F - 26.6 °F 38% 30.21 in 10.0 mi ENE 8.1 mph - N/A   Unknown
12:55 PM 51.8 °F - 26.6 °F 38% 30.21 in 10.0 mi East 4.6 mph - N/A   Unknown
1:15 PM 51.8 °F - 26.6 °F 38% 30.19 in 3.0 mi East 5.8 mph - N/A   Haze
1:35 PM 51.8 °F - 28.4 °F 41% 30.18 in 10.0 mi East 5.8 mph - N/A   Unknown
1:55 PM 51.8 °F - 28.4 °F 41% 30.17 in 10.0 mi Calm Calm - N/A   Unknown
2:15 PM 51.8 °F - 28.4 °F 41% 30.16 in 10.0 mi ENE 4.6 mph - N/A   Unknown
2:35 PM 51.8 °F - 28.4 °F 41% 30.15 in 10.0 mi Calm Calm - N/A   Unknown
3:00 PM 51.8 °F - 28.4 °F 41% 30.14 in 10.0 mi ENE 3.5 mph - N/A   Unknown
3:15 PM 51.8 °F - 28.4 °F 41% 30.14 in 10.0 mi ENE 4.6 mph - N/A   Unknown
3:35 PM 51.8 °F - 28.4 °F 41% 30.13 in 10.0 mi ENE 3.5 mph - N/A   Unknown
3:55 PM 51.8 °F - 28.4 °F 41% 30.13 in 10.0 mi East 3.5 mph - N/A   Unknown
4:15 PM 51.8 °F - 28.4 °F 41% 30.12 in 10.0 mi East 5.8 mph - N/A   Unknown
4:35 PM 51.8 °F - 28.4 °F 41% 30.11 in 10.0 mi East 3.5 mph - N/A   Unknown
4:55 PM 51.8 °F - 28.4 °F 41% 30.10 in 10.0 mi East 3.5 mph - N/A   Unknown
5:15 PM 51.8 °F - 30.2 °F 44% 30.09 in 10.0 mi East 4.6 mph - N/A   Unknown
5:35 PM 51.8 °F - 30.2 °F 44% 30.09 in 10.0 mi Calm Calm - N/A   Unknown
5:55 PM 51.8 °F - 30.2 °F 44% 30.09 in 10.0 mi East 3.5 mph - N/A   Unknown
6:15 PM 51.8 °F - 30.2 °F 44% 30.09 in 10.0 mi Calm Calm - N/A   Unknown
6:35 PM 51.8 °F - 30.2 °F 44% 30.08 in 10.0 mi Calm Calm - N/A   Unknown
6:55 PM 51.8 °F - 30.2 °F 44% 30.09 in 10.0 mi Calm Calm - N/A   Unknown
7:15 PM 50.0 °F - 30.2 °F 47% 30.09 in 7.0 mi NNE 4.6 mph - N/A Rain Light Rain
7:35 PM 48.2 °F - 30.2 °F 50% 30.09 in 10.0 mi NNE 5.8 mph - N/A   Unknown
7:55 PM 48.2 °F - 30.2 °F 50% 30.10 in 10.0 mi Calm Calm - N/A   Unknown
8:15 PM 48.2 °F - 32.0 °F 54% 30.10 in 10.0 mi North 3.5 mph - N/A   Unknown
8:35 PM 48.2 °F - 32.0 °F 54% 30.11 in 10.0 mi Calm Calm - N/A   Unknown
8:55 PM 48.2 °F - 32.0 °F 54% 30.11 in 10.0 mi Calm Calm - N/A   Unknown
9:15 PM 48.2 °F - 32.0 °F 54% 30.11 in 10.0 mi Calm Calm - N/A   Unknown
9:35 PM 48.2 °F - 32.0 °F 54% 30.11 in 10.0 mi Calm Calm - N/A   Unknown
9:55 PM 48.2 °F - 32.0 °F 54% 30.13 in 10.0 mi North 4.6 mph - N/A   Unknown
10:15 PM 48.2 °F - 32.0 °F 54% 30.15 in 10.0 mi NNW 3.5 mph - N/A   Unknown
10:35 PM 48.2 °F - 32.0 °F 54% 30.14 in 10.0 mi North 4.6 mph - N/A   Unknown
10:55 PM 48.2 °F - 32.0 °F 54% 30.15 in 10.0 mi Calm Calm - N/A   Unknown
11:15 PM 48.2 °F - 32.0 °F 54% 30.15 in 10.0 mi North 3.5 mph - N/A Rain Light Rain
11:35 PM 48.2 °F - 32.0 °F 54% 30.16 in 10.0 mi Calm Calm - N/A   Unknown
11:55 PM 46.4 °F - 32.0 °F 57% 30.16 in 10.0 mi Calm Calm - N/A   Unknown